Weather History for Osoyoos, BC

Change the Weather History Date:

Sunday, September 16, 2012

  Actual Average Record
Temperature  
Mean Temperature 70 °F -  
Max Temperature 82 °F - - ()
Min Temperature 58 °F - - ()
Cooling Degree Days 5    
Growing Degree Days 20 (Base 50)    
Moisture  
Dew Point 36 °F    
Average Humidity 30    
Maximum Humidity 54    
Minimum Humidity 8    
Precipitation  
Precipitation 0.00 in - - ()
Sea Level Pressure  
Sea Level Pressure 30.14 in    
Wind  
Wind Speed 6 mph ()    
Max Wind Speed 12 mph    
Max Gust Speed 22 mph    
T = Trace of Precipitation, MM = Missing Value Source: Averaged Metar Reports

Daily Weather History Graph

Daily Weather History Graph

Search for Another Location

Airport:

Trip Planner

Search our weather history database for the weather conditions in past years. The results will help you decide how hot, cold, wet, or windy it might be!

Date:

Astronomy

Sep. 16, 2012 Rise Set
Actual Time 6:36 AM PDT 7:07 PM PDT
Civil Twilight 6:04 AM PDT 7:39 PM PDT
Nautical Twilight 5:26 AM PDT 8:16 PM PDT
Astronomical Twilight 4:47 AM PDT 8:56 PM PDT
Moon 7:30 AM PDT (9/16) 7:03 PM PDT (9/16)
Length of Visible Light 13h 34m
Length of Day
12h 30m
New Moon, 1% of the Moon is Illuminated
Sep 16
New Moon
Sep 22
First Quarter
Sep 29
Full
Oct 8
Last Quarter
Oct 15
New

Hourly Weather History & Observations

Time (PDT) Temp. Dew Point Humidity Pressure Visibility Wind Dir Wind Speed Gust Speed Precip Events Conditions
12:00 AM 62.6 °F 45.9 °F 54% 30.12 in - NNE 3.5 mph - N/A   Unknown
1:00 AM 65.5 °F 44.8 °F 47% 30.14 in - NNW 4.6 mph - N/A   Unknown
2:00 AM 67.3 °F 38.1 °F 34% 30.15 in - NW 4.6 mph - N/A   Unknown
3:00 AM 66.4 °F 38.1 °F 35% 30.14 in - NNW 6.9 mph - N/A   Unknown
4:00 AM 64.9 °F 40.3 °F 40% 30.15 in - NNW 5.8 mph - N/A   Unknown
5:00 AM 63 °F 38 °F 27% 30.16 in - NW 4.6 mph - -  
5:00 AM 63.3 °F 37.8 °F 39% 30.16 in - NW 4.6 mph - N/A   Unknown
7:00 AM 59.0 °F 38.8 °F 47% 30.21 in - NNE 4.6 mph - N/A   Unknown
8:00 AM 61.3 °F 36.1 °F 39% 30.22 in - NNW 5.8 mph - N/A   Unknown
9:00 AM 65.7 °F 34.2 °F 31% 30.22 in - WNW 5.8 mph - N/A   Unknown
10:00 AM 71.2 °F 33.1 °F 25% 30.21 in - NNW 9.2 mph 19.6 mph N/A   Unknown
11:00 AM 74 °F 31 °F 11% 30.19 in - NNW 10.4 mph - -  
11:00 AM 73.6 °F 31.1 °F 21% 30.19 in - NNW 10.4 mph 19.6 mph N/A   Unknown
12:00 PM 75.4 °F 34.7 °F 23% 30.17 in - NNW 10.4 mph 19.6 mph N/A   Unknown
1:00 PM 77.4 °F 32.9 °F 20% 30.14 in - NNW 11.5 mph 21.9 mph N/A   Unknown
2:00 PM 78.8 °F 31.5 °F 18% 30.12 in - NW 11.5 mph 19.6 mph N/A   Unknown
3:00 PM 80.2 °F 33.3 °F 18% 30.10 in - NNW 10.4 mph 20.7 mph N/A   Unknown
4:00 PM 81.9 °F 30.7 °F 16% 30.09 in - NNW 10.4 mph - N/A   Unknown
5:00 PM 81 °F 31 °F 8% 30.08 in - NNW 11.5 mph - -  
5:00 PM 81.1 °F 30.9 °F 16% 30.08 in - NNW 11.5 mph 18.4 mph N/A   Unknown
6:00 PM 78.3 °F 35.8 °F 22% 30.08 in - NW 8.1 mph - N/A   Unknown
7:00 PM 74.7 °F 34.2 °F 23% 30.09 in - NW 4.6 mph - N/A   Unknown
8:00 PM 65.1 °F 41.4 °F 42% 30.11 in - NE 2.3 mph - N/A   Unknown
9:00 PM 67.1 °F 39.0 °F 36% 30.12 in - NE 3.5 mph - N/A   Unknown
10:00 PM 64.4 °F 38.7 °F 39% 30.13 in - NE 2.3 mph - N/A   Unknown
11:00 PM 61 °F 40 °F 34% 30.14 in - NE 2.3 mph - -  
11:00 PM 60.8 °F 40.1 °F 46% 30.14 in - NE 2.3 mph - N/A   Unknown